Regional Weather Roundup
Issued by NWS Northern Indiana

Home | Current Version | Previous Version | Graphics & Text | Print | Product List | Glossary On
Versions: 1 2 3 4 5 6 7 8 9 10 11 12 13 14 15 16 17 18 19 20 21 22 23 24 25 26 27 28 29 30 31 32 33 34 35 36 37 38 39 40 41 42 43 44 45 46 47 48 49 50
000
ASUS43 KIWX 111500
RWRIWX

KIWX WEATHER ROUNDUP
NATIONAL WEATHER SERVICE NORTHERN INDIANA
1100 AM EDT FRI JUL 11 2014

NOTE: "FAIR" INDICATES FEW OR NO CLOUDS BELOW 12,000 FEET WITH NO
SIGNIFICANT WEATHER AND/OR OBSTRUCTIONS TO VISIBILITY.

* THESE STATIONS ARE NOT UNDER NWS QUALITY CONTROL. THEY ALSO MAY NOT
  REPORT WEATHER SUCH AS PRECIPITATION OR FOG.

INZ001>027-111600-
NORTHERN INDIANA

CITY           SKY/WX    TMP DP  RH WIND       PRES   REMARKS
GARY*          MOSUNNY   75  54  46 SE8       30.22F
VALPARAISO     SUNNY     72  55  55 S3        30.23F
SOUTH BEND     SUNNY     75  54  47 SW7       30.24S
GOSHEN         SUNNY     75  58  55 SE7       30.24S
ANGOLA*        SUNNY     73  59  60 SE3       30.24F
FORT WAYNE     MOSUNNY   75  58  55 NE3       30.24S
PERU/GRISSOM   SUNNY     75  59  57 S5        30.24R

$$
INZ028>050-111600-
CENTRAL INDIANA

CITY           SKY/WX    TMP DP  RH WIND       PRES   REMARKS
LAFAYETTE      SUNNY     75  55  49 SE3       30.22F
KOKOMO*        SUNNY     75  55  50 CALM      30.24S
MUNCIE*        SUNNY     77  52  41 CALM      30.24R
INDIANAPOLIS   MOSUNNY   75  57  53 SE8       30.23R

$$
MIZ043>046-050>051-056>058-064>065-071>073-077>080-111600-
SOUTHWEST LOWER MICHIGAN

CITY           SKY/WX    TMP DP  RH WIND       PRES   REMARKS
BATTLE CREEK   SUNNY     73  56  54 CALM      30.25S
BENTON HARBOR  SUNNY     73  56  54 S5        30.22F
COLDWATER*     SUNNY     74  61  64 SE5       30.24F
HILLSDALE*     SUNNY     73  60  63 CALM      30.26R
HOLLAND        SUNNY     76  58  53 SE8       30.23F
GRAND RAPIDS   PTSUNNY   75  58  55 S7        30.23F
KALAMAZOO      MOSUNNY   74  52  46 SW6       30.24F
STURGIS*       MOSUNNY   72  61  68 S6        30.24F
THREE RIVERS*  FAIR      74  62  67 S3        30.25S

$$
OHZ001>008-015>018-024>025-111600-
NORTHWEST OHIO

CITY           SKY/WX    TMP DP  RH WIND       PRES   REMARKS
DEFIANCE       SUNNY     75  58  55 E5        30.25R
FINDLAY        SUNNY     75  56  51 VRB6      30.23S
TOLEDO EXPRESS MOSUNNY   75  60  59 E8        30.24R
TOLEDO METCALF SUNNY     76  58  53 E7        30.24S
LIMA           SUNNY     75  58  55 E3        30.24S

$$
&&



USA.gov is the U.S. government's official web portal to all federal, state and local government web resources and services.